timestamp,surface_pressure_avg,surface_temp_avg,battery_voltage,lat,long
2021-07-03 00:09:01+00:00,211.9147,12.9,12.97,47.84626,-54.09684
2021-07-03 00:19:01+00:00,206.5166,12.8,12.73,47.84626,-54.09684
2021-07-03 00:29:01+00:00,215.8897,12.8,12.73,47.84626,-54.09684
2021-07-03 00:39:01+00:00,223.1898,12.8,12.73,47.84626,-54.09684
2021-07-03 00:49:01+00:00,215.8114,12.8,12.73,47.84626,-54.09684
2021-07-03 00:59:01+00:00,217.0764,12.8,12.73,47.84626,-54.09684
2021-07-03 01:09:01+00:00,224.0647,12.7,12.73,47.84626,-54.09684
2021-07-03 01:19:01+00:00,218.6614,12.7,12.73,47.84626,-54.09684
2021-07-03 01:29:01+00:00,214.678,12.7,12.73,47.84626,-54.09684
2021-07-03 01:39:01+00:00,222.8081,12.74,12.73,47.84626,-54.09684
2021-07-03 01:49:01+00:00,223.8248,12.77,12.73,47.84626,-54.09684
2021-07-03 01:59:01+00:00,216.5364,12.74,12.73,47.84626,-54.09684
2021-07-03 02:09:01+00:00,220.1264,12.7,12.73,47.84626,-54.09684
2021-07-03 02:19:01+00:00,232.5781,12.64,12.73,47.84626,-54.09684
2021-07-03 02:29:01+00:00,235.2831,12.67,12.73,47.84626,-54.09684
2021-07-03 02:39:01+00:00,230.3664,12.7,12.73,47.84626,-54.09684
2021-07-03 02:49:01+00:00,229.1781,12.6,12.73,47.84626,-54.09684
2021-07-03 02:59:01+00:00,236.4614,12.5,12.73,47.84626,-54.09684
2021-07-03 03:09:01+00:00,241.3464,12.56,12.73,47.84626,-54.09684
2021-07-03 03:19:01+00:00,240.7881,12.58,12.73,47.84626,-54.09684
2021-07-03 03:29:01+00:00,247.8914,12.5,12.73,47.84626,-54.09684
2021-07-03 03:39:01+00:00,258.138,12.5,12.73,47.84626,-54.09684
2021-07-03 03:49:01+00:00,261.478,12.55,12.73,47.84626,-54.09684
2021-07-03 03:59:01+00:00,265.0931,12.5,12.73,47.84626,-54.09684
2021-07-03 04:09:01+00:00,273.3047,12.5,12.73,47.84626,-54.09684
2021-07-03 04:19:01+00:00,277.6764,12.4,12.73,47.84626,-54.09684
2021-07-03 04:29:01+00:00,280.1198,12.2,12.73,47.84626,-54.09684
2021-07-03 04:39:01+00:00,284.6964,12.19,12.73,47.84626,-54.09684
2021-07-03 04:49:01+00:00,291.9247,12.37,12.73,47.84626,-54.09684
2021-07-03 04:59:01+00:00,294.513,12.4,12.73,47.84626,-54.09684
2021-07-03 05:09:01+00:00,294.0547,12.4,12.73,47.84626,-54.09684
2021-07-03 05:19:01+00:00,298.5897,12.4,12.73,47.84626,-54.09684
2021-07-03 05:29:01+00:00,304.4246,12.4,12.73,47.84626,-54.09684
2021-07-03 05:39:01+00:00,307.5114,12.4,12.73,47.84626,-54.09684
2021-07-03 05:49:01+00:00,311.673,12.24,12.73,47.84626,-54.09684
2021-07-03 05:59:01+00:00,315.2513,12.02,12.73,47.84626,-54.09684
2021-07-03 06:09:01+00:00,317.1047,12.28,12.73,47.84626,-54.09684
2021-07-03 06:19:00+00:00,316.9197,12.1,12.65,47.84626,-54.09684
2021-07-03 06:29:00+00:00,314.6713,11.9,12.65,47.84626,-54.09684
2021-07-03 06:39:00+00:00,315.4114,11.99,12.65,47.84626,-54.09684
2021-07-03 06:49:00+00:00,311.588,12.07,12.65,47.84626,-54.09684
2021-07-03 06:59:00+00:00,311.5814,12.1,12.65,47.84626,-54.09684
2021-07-03 07:09:00+00:00,313.6296,12.18,12.65,47.84626,-54.09684
2021-07-03 07:19:01+00:00,311.2563,12.2,12.65,47.84626,-54.09684
2021-07-03 07:29:01+00:00,310.3063,12.23,12.65,47.84626,-54.09684
2021-07-03 07:39:01+00:00,312.4047,12.29,12.65,47.84626,-54.09684
2021-07-03 07:49:01+00:00,307.693,12.3,12.65,47.84626,-54.09684
2021-07-03 07:59:01+00:00,303.0262,12.3,12.65,47.84626,-54.09684
2021-07-03 08:09:01+00:00,299.1113,12.3,12.65,47.84626,-54.09684
2021-07-03 08:19:01+00:00,297.89799999999997,12.3,12.65,47.84626,-54.09684
2021-07-03 08:29:01+00:00,291.7646,12.3,12.65,47.84626,-54.09684
2021-07-03 08:39:01+00:00,291.3948,12.3,12.65,47.84626,-54.09684
2021-07-03 08:49:01+00:00,281.6947,12.3,12.65,47.84626,-54.09684
2021-07-03 08:59:01+00:00,273.3231,12.3,12.65,47.84626,-54.09684
2021-07-03 09:09:01+00:00,270.0331,12.3,12.65,47.84626,-54.09684
2021-07-03 09:19:01+00:00,263.2647,12.3,12.65,47.84626,-54.09684
2021-07-03 09:29:01+00:00,256.1631,12.2,12.65,47.84626,-54.09684
2021-07-03 09:39:01+00:00,256.183,12.0,12.65,47.84626,-54.09684
2021-07-03 09:49:01+00:00,251.2798,11.9,12.65,47.84626,-54.09684
2021-07-03 09:59:01+00:00,235.8881,11.8,12.65,47.84626,-54.09684
2021-07-03 10:09:01+00:00,234.4214,11.76,12.65,47.84626,-54.09684
2021-07-03 10:19:00+00:00,238.7515,11.84,12.97,47.84626,-54.09684
2021-07-03 10:29:00+00:00,232.3448,11.9,12.97,47.84626,-54.09684
2021-07-03 10:39:00+00:00,221.5931,11.8,12.97,47.84626,-54.09684
2021-07-03 10:49:00+00:00,222.8948,11.79,12.97,47.84626,-54.09684
2021-07-03 10:59:00+00:00,224.3881,11.87,12.97,47.84626,-54.09684
2021-07-03 11:09:00+00:00,216.6664,11.89,12.97,47.84626,-54.09684
2021-07-03 11:19:01+00:00,211.5281,11.94,13.44,47.84626,-54.09684
2021-07-03 11:29:01+00:00,218.4248,12.0,13.44,47.84626,-54.09684
2021-07-03 11:39:01+00:00,219.9765,12.0,13.44,47.84626,-54.09684
2021-07-03 11:49:01+00:00,211.9131,12.08,13.44,47.84626,-54.09684
2021-07-03 11:59:01+00:00,211.1364,12.1,13.44,47.84626,-54.09684
2021-07-03 12:09:01+00:00,214.4281,12.15,13.44,47.84626,-54.09684
2021-07-03 12:19:01+00:00,212.283,12.17,13.84,47.84626,-54.09684
2021-07-03 12:29:01+00:00,218.2831,12.15,13.84,47.84626,-54.09684
2021-07-03 12:39:01+00:00,220.9614,12.1,13.84,47.84626,-54.09684
2021-07-03 12:49:01+00:00,217.2048,12.1,13.84,47.84626,-54.09684
2021-07-03 12:59:01+00:00,217.0882,12.1,13.84,47.84626,-54.09684
2021-07-03 13:09:01+00:00,222.8298,12.1,13.84,47.84626,-54.09684
2021-07-03 13:19:00+00:00,224.2765,12.03,14.08,47.84626,-54.09684
2021-07-03 13:29:00+00:00,223.3231,12.09,14.08,47.84626,-54.09684
2021-07-03 13:39:00+00:00,228.8064,12.1,14.08,47.84626,-54.09684
2021-07-03 13:49:00+00:00,229.4348,12.09,14.08,47.84626,-54.09684
2021-07-03 13:59:00+00:00,223.8431,12.08,14.08,47.84626,-54.09684
2021-07-03 14:09:00+00:00,223.6198,12.09,14.08,47.84626,-54.09684
2021-07-03 14:19:01+00:00,231.7281,12.08,14.32,47.84626,-54.09684
2021-07-03 14:29:01+00:00,234.5381,12.0,14.32,47.84626,-54.09684
2021-07-03 14:39:01+00:00,236.4648,12.0,14.32,47.84626,-54.09684
2021-07-03 14:49:01+00:00,239.0714,12.0,14.32,47.84626,-54.09684
2021-07-03 14:59:01+00:00,239.8415,12.0,14.32,47.84626,-54.09684
2021-07-03 15:09:01+00:00,240.5414,12.0,14.32,47.84626,-54.09684
2021-07-03 15:19:01+00:00,242.0349,12.0,14.32,47.84626,-54.09684
2021-07-03 15:29:01+00:00,243.4615,12.0,14.32,47.84626,-54.09684
2021-07-03 15:39:01+00:00,246.1881,12.0,14.32,47.84626,-54.09684
2021-07-03 15:49:01+00:00,255.0281,12.0,14.32,47.84626,-54.09684
2021-07-03 15:59:01+00:00,263.8731,11.99,14.32,47.84626,-54.09684
2021-07-03 16:09:01+00:00,266.6964,12.0,14.32,47.84626,-54.09684
2021-07-03 16:19:01+00:00,274.1364,12.0,14.4,47.84626,-54.09684
2021-07-03 16:29:01+00:00,280.2081,12.0,14.4,47.84626,-54.09684
2021-07-03 16:39:01+00:00,282.3931,12.0,14.4,47.84626,-54.09684
2021-07-03 16:49:01+00:00,282.218,12.0,14.4,47.84626,-54.09684
2021-07-03 16:59:01+00:00,286.6214,12.0,14.4,47.84626,-54.09684
2021-07-03 17:09:01+00:00,286.0313,12.0,14.4,47.84626,-54.09684
2021-07-03 17:19:00+00:00,287.6697,12.0,14.24,47.84626,-54.09684
2021-07-03 17:29:00+00:00,293.0064,12.0,14.24,47.84626,-54.09684
2021-07-03 17:39:00+00:00,301.1313,12.0,14.24,47.84626,-54.09684
2021-07-03 17:49:00+00:00,300.5414,12.0,14.24,47.84626,-54.09684
2021-07-03 17:59:00+00:00,305.5013,12.0,14.24,47.84626,-54.09684
2021-07-03 18:09:00+00:00,312.7246,12.0,14.24,47.84626,-54.09684
2021-07-03 18:19:01+00:00,317.2163,12.0,14.08,47.84626,-54.09684
2021-07-03 18:29:01+00:00,313.6163,12.0,14.08,47.84626,-54.09684
2021-07-03 18:39:01+00:00,313.6146,12.0,14.08,47.84626,-54.09684
2021-07-03 18:49:01+00:00,312.2097,12.0,14.08,47.84626,-54.09684
2021-07-03 18:59:01+00:00,312.1862,11.9,14.08,47.84626,-54.09684
2021-07-03 19:09:01+00:00,312.1463,11.7,14.08,47.84626,-54.09684
2021-07-03 19:19:01+00:00,316.7564,11.59,14.08,47.84626,-54.09684
2021-07-03 19:29:01+00:00,312.5397,11.7,14.08,47.84626,-54.09684
2021-07-03 19:39:01+00:00,310.8447,11.9,14.08,47.84626,-54.09684
2021-07-03 19:49:01+00:00,314.5496,11.9,14.08,47.84626,-54.09684
2021-07-03 19:59:01+00:00,316.473,11.91,14.08,47.84626,-54.09684
2021-07-03 20:09:01+00:00,307.8846,12.08,14.08,47.84626,-54.09684
2021-07-03 20:19:01+00:00,307.8197,12.03,13.92,47.84626,-54.09684
2021-07-03 20:29:01+00:00,311.71299999999997,11.97,13.92,47.84626,-54.09684
2021-07-03 20:39:01+00:00,305.078,12.1,13.92,47.84626,-54.09684
2021-07-03 20:49:01+00:00,296.7747,12.2,13.92,47.84626,-54.09684
2021-07-03 20:59:01+00:00,295.8329,12.2,13.92,47.84626,-54.09684
2021-07-03 21:09:01+00:00,294.1597,12.19,13.92,47.84626,-54.09684
2021-07-03 21:19:01+00:00,287.1014,12.2,13.76,47.84626,-54.09684
2021-07-03 21:29:01+00:00,280.183,12.27,13.76,47.84626,-54.09684
2021-07-03 21:39:01+00:00,280.7497,12.29,13.76,47.84626,-54.09684
2021-07-03 21:49:01+00:00,280.5098,12.27,13.76,47.84626,-54.09684
2021-07-03 21:59:01+00:00,274.5464,12.3,13.76,47.84626,-54.09684
2021-07-03 22:09:01+00:00,270.0648,12.3,13.76,47.84626,-54.09684
2021-07-03 22:19:01+00:00,268.5181,12.3,13.68,47.84626,-54.09684
2021-07-03 22:29:01+00:00,259.0381,12.3,13.68,47.84626,-54.09684
2021-07-03 22:39:01+00:00,246.9898,12.3,13.68,47.84626,-54.09684
2021-07-03 22:49:01+00:00,246.3281,12.31,13.68,47.84626,-54.09684
2021-07-03 22:59:01+00:00,245.9247,12.3,13.68,47.84626,-54.09684
2021-07-03 23:09:01+00:00,236.6798,12.3,13.68,47.84626,-54.09684
2021-07-03 23:19:01+00:00,231.0848,12.3,13.29,47.84626,-54.09684
2021-07-03 23:29:01+00:00,229.0314,12.3,13.29,47.84626,-54.09684
2021-07-03 23:39:01+00:00,222.2765,12.3,13.29,47.84626,-54.09684
2021-07-03 23:49:01+00:00,218.9498,12.3,13.29,47.84626,-54.09684
2021-07-03 23:59:01+00:00,223.6614,12.3,13.29,47.84626,-54.09684
